Flag for U.S.A. Weather past 2 weeks in Cumberland, Maryland, U.S.A.

Now
76 °F

Sunny.


Feels Like: 77 °F
Forecast: 55 / 75 °F
Wind: 5 mph from North

Location: Eastern West Virginia Regional Airport

Current Time: Sep 18, 2014 at 6:08:37 PM

Latest Report: Sep 18, 2014 at 4:53 PM


Visibility: 10 mi

Pressure: 30.01 "Hg

Humidity: 32%

Dew point: 44 °F

Location of CumberlandLocation

Historic Weather in Cumberland — Graph

°F

Cumberland temperature yesterday

Maximum temperature yesterday: 73 °F (at 4:53 PM)
Minimum temperature yesterday: 45 °F (at 6:53 AM)
Average temperature yesterday: 59 °F

Past Weeks' High & Low Weather Summary

 TemperatureHumidityPressure
High90 °F (Sep 6, 11:53 AM)91% (Sep 6, 1:53 AM)30.35 "Hg (Sep 6, 1:53 AM)
Low45 °F (Sep 14, 5:53 AM)32% (Sep 18, 4:53 PM)29.86 "Hg (Sep 11, 8:53 AM)
Average68 °F69%30.10 "Hg
* Reported Sep 3 4:53 PM — Sep 18 4:53 PM, Cumberland, Weather by CustomWeather, © 2014

Note: Actual official high and low records may vary slightly from our data, if they occured in-between our weather recording intervals... More about our weather records

Advertising

Cumberland weather history for previous 24 hours

 ConditionsComfort  
Time TempWeatherWind HumidityBarometerVisibility
4:53 PM
Sep 18
76 °FSunny.5 mph32%30.01 "Hg10 mi
3:53 PM77 °FPassing clouds.8 mph33%30.01 "Hg10 mi
2:53 PM76 °FPartly sunny.7 mph36%30.01 "Hg10 mi
1:53 PM75 °FPassing clouds.5 mph36%30.02 "Hg10 mi
12:53 PM73 °FSunny.3 mph40%30.03 "Hg10 mi
11:53 AM73 °FScattered clouds.8 mph44%30.02 "Hg10 mi
10:53 AM68 °FSunny.3 mph55%30.03 "Hg10 mi
9:53 AM63 °FPartly sunny.No wind63%30.03 "Hg10 mi
8:53 AM58 °FOvercast.No wind75%30.02 "Hg9 mi
7:53 AM54 °FFog.No wind86%30.02 "Hg6 mi
6:53 AM51 °FPassing clouds.No wind86%29.99 "Hg7 mi
5:53 AM54 °FPartly cloudy.No wind80%29.98 "Hg10 mi
4:53 AM54 °FPassing clouds.No wind80%29.97 "Hg9 mi
3:53 AM54 °FClear.No wind83%29.96 "Hg9 mi
2:53 AM57 °FClear.No wind78%29.96 "Hg10 mi
1:53 AM57 °FMostly cloudy.No wind83%29.97 "Hg9 mi
12:53 AM57 °FPassing clouds.No wind81%29.96 "Hg10 mi
11:53 PM
Sep 17
57 °FPartly cloudy.No wind81%29.98 "Hg10 mi
10:53 PM59 °FMostly cloudy.No wind75%29.98 "Hg10 mi
9:53 PM58 °FMostly cloudy.No wind78%29.98 "Hg10 mi
8:53 PM59 °FClear.No wind72%29.97 "Hg10 mi
7:53 PM62 °FSunny.3 mph62%29.96 "Hg10 mi
6:53 PM66 °FPassing clouds.3 mph56%29.97 "Hg10 mi
Weather by CustomWeather, © 2014

See weather overviewHow to use our weather pages